Location: Ahausen
(50.4985°N, 8.2722°E)
Time: 18:06:34
(UTC+00:00)

ISS - Visible Passes

Search period start: 25 January 2022 00:00
Search period end: 04 February 2022 00:00
Orbit: 413 x 422 km, 51.6° (Epoch: 25 January)

Date Brightness Start Highest point End Pass type
(mag) Time Alt. Az. Time Alt. Az. Time Alt. Az.
25 Jan -3.9 18:04:06 10° W 18:07:27 73° N 18:07:44 67° NE visible
26 Jan -3.8 17:15:59 10° W 17:19:20 81° NNW 17:21:37 19° ENE visible
26 Jan -1.6 18:52:53 10° WNW 18:54:32 27° WNW 18:54:32 27° WNW visible
27 Jan -3.9 18:04:43 10° W 18:08:04 71° N 18:08:23 64° NE visible
28 Jan -3.7 17:16:31 10° W 17:19:51 70° N 17:22:13 18° E visible
28 Jan -1.8 18:53:20 10° WNW 18:55:08 29° W 18:55:08 29° W visible
29 Jan -3.9 18:05:07 10° WNW 18:08:28 89° ENE 18:08:58 62° ESE visible
30 Jan -3.8 17:16:50 10° WNW 17:20:11 77° N 17:22:49 15° E visible
30 Jan -1.9 18:53:40 10° W 18:55:45 30° WSW 18:55:45 30° WSW visible
31 Jan -3.3 18:05:19 10° WNW 18:08:36 56° SSW 18:09:38 37° SE visible
01 Feb -3.6 17:16:57 10° WNW 17:20:18 75° SSW 17:23:35 10° ESE visible
01 Feb -1.5 18:54:06 10° W 18:56:31 21° SW 18:56:31 21° SW visible
02 Feb -2.0 18:05:28 10° W 18:08:26 30° SSW 18:10:33 15° SSE visible
03 Feb -2.6 17:16:56 10° W 17:20:06 42° SSW 17:23:17 10° SE visible
